Content
SEND FEEDBACK

Daily
Averages
Monthly
Summary
United States of America

BELLEVILLE, MICHIGAN


Home > North America > United States > Michigan
Elevation: 780 feet     Latitude: 42 14N     Longitude: 083 32W

WEATHER
 
SELECT A DAY
Number of Records: 207,433;   Date Range: 1/1/95 - 12/19/14
 
SHARE

PRINT THIS DATA

[ ← Previous Day ]
WEATHER ALMANAC - JUNE 12, 2013
[ Next Day → ]
[ °C ]   °F
Weather ElementAverageHighLow
Temperature72.6 °F80.1 °F (4:53 pm)64.9 °F (3:53 am)
Dewpoint64 °F66.9 °F (4:53 pm)59 °F (1:53 am)
Humidity74.6 %84 % (9:53 pm)62 % (2:53 pm)
Barometer29.81 in29.92 in (11:53 am)29.66 in (11:53 pm)
Wind Speed4.4 mph16.1 mph (8:19 pm)
Weather ElementAverage
Visibility7.7 mi
Wind DirectionESE (108.6 °)

Weather ElementTotal
Precipitation1.64 in
Cooling Degree Days7.5 (Base 65)
Growing Degree Days22.5 (Base 50)
Averaged from 28 records on June 12, 2013
WEATHER CONDITIONS BREAKOUT
WIND DIRECTION BREAKOUT
WEATHER BY HOUR - JUNE 12, 2013
[ °C ]   °F
Local TimeTemperatureDewpointHumidityBarometerVisibilityWind DirectionWind SpeedGust SpeedPrecipitationEventsConditions
1:53 AM70.0 °F59.0 °F68 %29.85 in10.0 miNW (310°)3.5 mphClear
2:53 AM68.0 °F59.0 °F73 %29.85 in10.0 miWest (260°)3.5 mphClear
3:53 AM64.9 °F59.0 °F81 %29.84 in10.0 miWest (260°)5.8 mphClear
4:53 AM64.9 °F59.0 °F81 %29.87 in10.0 miWest (260°)3.5 mphClear
5:53 AM64.9 °F59.0 °F81 %29.89 in10.0 miCalmClear
6:53 AM68.0 °F62.1 °F81 %29.88 in9.0 miCalmClear
7:53 AM72.0 °F61.0 °F68 %29.89 in10.0 miNW (320°)4.6 mphClear
8:53 AM73.9 °F62.1 °F66 %29.88 in10.0 miCalmClear
9:53 AM73.0 °F63.0 °F71 %29.89 in10.0 miCalmPartly Cloudy
10:53 AM75.0 °F64.0 °F69 %29.90 in10.0 miSouth (170°)3.5 mph0.00 inClear
11:53 AM75.0 °F63.0 °F66 %29.92 in10.0 miCalmScattered Clouds
12:53 PM73.9 °F64.9 °F73 %29.85 in10.0 miSE (140°)5.8 mph0.00 inPartly Cloudy
1:53 PM75.9 °F64.9 °F69 %29.84 in10.0 miSouth (190°)6.9 mphScattered Clouds
2:53 PM79.0 °F64.9 °F62 %29.84 in10.0 miSouth (190°)9.2 mphPartly Cloudy
3:53 PM79.0 °F66.0 °F64 %29.83 in10.0 miSouth (190°)8.1 mph0.00 inPartly Cloudy
4:53 PM80.1 °F66.9 °F64 %29.80 in10.0 miENE (70°)4.6 mphScattered Clouds
5:53 PM79.0 °F66.9 °F66 %29.82 in10.0 miCalmMostly Cloudy
6:53 PM75.9 °F66.9 °F74 %29.78 in10.0 miESE (110°)3.5 mph0.00 inScattered Clouds
7:53 PM75.0 °F66.0 °F73 %29.75 in9.0 miENE (70°)5.8 mph0.00 inOvercast
8:19 PM73.4 °F66.2 °F78 %29.76 in1.5 miNNE (20°)16.1 mph0.25 inRainHeavy Rain
8:27 PM71.6 °F66.2 °F83 %29.77 in1.0 miVariable3.5 mph0.34 inRainRain
8:31 PM71.6 °F66.2 °F83 %29.77 in2.0 miEast (90°)3.5 mph0.34 inRainLight Rain
8:38 PM71.6 °F66.2 °F83 %29.76 in5.0 miENE (60°)6.9 mph0.34 inHaze
8:53 PM72.0 °F66.0 °F81 %29.74 in4.0 miCalm0.35 inHaze
9:37 PM71.6 °F66.2 °F83 %29.75 in4.0 miESE (110°)6.9 mphHaze
9:53 PM72.0 °F66.9 °F84 %29.73 in3.0 miEast (100°)4.6 mphHaze
10:53 PM71.1 °F64.9 °F81 %29.67 in4.0 miEast (100°)6.9 mphHaze
11:53 PM70.0 °F64.9 °F84 %29.66 in4.0 miNNE (20°)6.9 mph0.02 inRainRain
Hourly data recorded from KYIP, located miles away from Belleville, Michigan







STORIES FROM OUR PARTNERS